{"data":{"norad_id":55466,"intl_designator":"2023-015T","name":"STARLINK-5628","alt_names":[],"object_type":"PAYLOAD","status":"ACTIVE","operator":null,"country":"US","launch_date":"2023-02-02","launch_site_code":"AFETR","launch_vehicle":null,"mission":null,"orbit_class":"UNKNOWN","rcs_meters":null,"size_class":null,"mass_kg":null,"dimensions":null,"purposes":["comms"],"wikipedia_slug":null,"has_3d_model":false,"image_url":null,"decayed_at":null,"tle_current":{"epoch":"2026-05-25T00:22:27.206688Z","epoch_age_seconds":84422,"freshness":"FRESH","line1":"1 55466U 23015T   26145.01559267 -.00000010  00000+0  91569-5 0  9996","line2":"2 55466  43.0033 257.7931 0001216 271.1908  88.8804 15.27577960182391","mean_motion":15.2757796,"eccentricity":0.0001216,"inclination_deg":43.0033,"raan_deg":257.7931,"arg_perigee_deg":271.1908,"mean_anomaly_deg":88.8804,"bstar":9.1569e-6,"rev_number":18239,"period_min":94.266874601935,"perigee_km":482.22088356826,"apogee_km":483.88952551241,"semimajor_km":6861.1922045403,"source":"CELESTRAK","updated_at":"2026-05-25T13:38:17.805964Z"}}}